^^
Station Historical Data
Daily Summary for October 20, 2017 Units:  Both    English   Metric
« Previous Day
Next Day »
Daily Weekly Monthly Yearly Custom
  High: Low: Average:
Temperature: TemperatureF °F /  -17.8 °C 50.7 °F /  10.4 °C 70.2 °F /  21.2 °C
Dew Point: DewpointF °F /  -17.8 °C 12.2 °F /  -11 °C 17.3 °F /  -8.2 °C
Humidity: Humidity% 6% 15%
Wind Speed: WindSpeedMPHmph /  0km/h - 1.2mph /  1.9km/h
Wind Gust: WindSpeedGustMPHmph /  0km/h - -
Wind- - West
Pressure: PressureIn in /  0 hPa 29.78 in /  1008.4 hPa -
Precipitation: 0.00 in /  0 mm    
Historical Graphs
 
 
Tabular Data for October 20, 2017
Time Temperature Dew Point Pressure Wind Wind Speed Wind Gust Humidity Rainfall Rate (Hourly) solar Conditions
TemperatureF °F /  -17.8 °C DewpointF °F /  -17.8 °C PressureInin /  0hPa Calm     Humidity% HourlyPrecipInin /  0mm SolarRadiationWatts/m^2 W/m2 Conditions
00:04 59.7 °F /  15.4 °C 20.8 °F /  -6.2 °C 29.85in /  1010.7hPa East 0.9mph /  1.4km/h 1.0mph /  1.6km/h 22% 0.00in /  0mm 0.0 W/m2
00:09 59.4 °F /  15.2 °C 20.5 °F /  -6.4 °C 29.84in /  1010.4hPa Calm   1.0mph /  1.6km/h 22% 0.00in /  0mm 0.0 W/m2
00:14 59.2 °F /  15.1 °C 20.3 °F /  -6.5 °C 29.84in /  1010.4hPa Calm     22% 0.00in /  0mm 0.0 W/m2
00:20 59.0 °F /  15 °C 20.1 °F /  -6.6 °C 29.84in /  1010.4hPa Calm   1.0mph /  1.6km/h 22% 0.00in /  0mm 0.0 W/m2
00:25 58.8 °F /  14.9 °C 20.1 °F /  -6.6 °C 29.84in /  1010.4hPa Calm   1.0mph /  1.6km/h 22% 0.00in /  0mm 0.0 W/m2
00:30 58.6 °F /  14.8 °C 19.9 °F /  -6.7 °C 29.84in /  1010.4hPa Calm   1.0mph /  1.6km/h 22% 0.00in /  0mm 0.0 W/m2
00:35 58.6 °F /  14.8 °C 21.0 °F /  -6.1 °C 29.84in /  1010.4hPa Calm   1.0mph /  1.6km/h 23% 0.00in /  0mm 0.0 W/m2
00:41 58.5 °F /  14.7 °C 20.8 °F /  -6.2 °C 29.84in /  1010.4hPa Calm   1.0mph /  1.6km/h 23% 0.00in /  0mm 0.0 W/m2
00:46 58.5 °F /  14.7 °C 20.8 °F /  -6.2 °C 29.84in /  1010.4hPa Calm   1.0mph /  1.6km/h 23% 0.00in /  0mm 0.0 W/m2
00:51 58.3 °F /  14.6 °C 20.7 °F /  -6.3 °C 29.84in /  1010.4hPa Calm   1.0mph /  1.6km/h 23% 0.00in /  0mm 0.0 W/m2
00:56 58.3 °F /  14.6 °C 20.7 °F /  -6.3 °C 29.84in /  1010.4hPa Calm     23% 0.00in /  0mm 0.0 W/m2
01:01 57.9 °F /  14.4 °C 20.3 °F /  -6.5 °C 29.84in /  1010.4hPa Calm     23% 0.00in /  0mm 0.0 W/m2
01:06 57.7 °F /  14.3 °C 20.1 °F /  -6.6 °C 29.83in /  1010hPa Calm     23% 0.00in /  0mm 0.0 W/m2
01:10 57.6 °F /  14.2 °C 21.0 °F /  -6.1 °C 29.83in /  1010hPa Calm     24% 0.00in /  0mm 0.0 W/m2
01:15 57.6 °F /  14.2 °C 21.0 °F /  -6.1 °C 29.83in /  1010hPa Calm   2.0mph /  3.2km/h 24% 0.00in /  0mm 0.0 W/m2
01:20 57.2 °F /  14 °C 20.7 °F /  -6.3 °C 29.83in /  1010hPa Calm   1.0mph /  1.6km/h 24% 0.00in /  0mm 0.0 W/m2
01:25 57.0 °F /  13.9 °C 20.5 °F /  -6.4 °C 29.83in /  1010hPa Calm   1.0mph /  1.6km/h 24% 0.00in /  0mm 0.0 W/m2
01:31 56.7 °F /  13.7 °C 20.3 °F /  -6.5 °C 29.83in /  1010hPa Calm   1.0mph /  1.6km/h 24% 0.00in /  0mm 0.0 W/m2
01:36 56.7 °F /  13.7 °C 20.3 °F /  -6.5 °C 29.83in /  1010hPa Calm     24% 0.00in /  0mm 0.0 W/m2
01:41 56.5 °F /  13.6 °C 20.1 °F /  -6.6 °C 29.83in /  1010hPa Calm   2.0mph /  3.2km/h 24% 0.00in /  0mm 0.0 W/m2
01:46 56.1 °F /  13.4 °C 20.8 °F /  -6.2 °C 29.83in /  1010hPa Calm     25% 0.00in /  0mm 0.0 W/m2
01:51 55.9 °F /  13.3 °C 19.6 °F /  -6.9 °C 29.83in /  1010hPa Calm   1.0mph /  1.6km/h 24% 0.00in /  0mm 0.0 W/m2
01:56 55.6 °F /  13.1 °C 20.3 °F /  -6.5 °C 29.83in /  1010hPa Calm   1.0mph /  1.6km/h 25% 0.00in /  0mm 0.0 W/m2
02:01 55.6 °F /  13.1 °C 20.3 °F /  -6.5 °C 29.83in /  1010hPa Calm     25% 0.00in /  0mm 0.0 W/m2
02:06 55.4 °F /  13 °C 21.0 °F /  -6.1 °C 29.82in /  1009.7hPa Calm     26% 0.00in /  0mm 0.0 W/m2
02:11 55.2 °F /  12.9 °C 19.9 °F /  -6.7 °C 29.82in /  1009.7hPa Calm     25% 0.00in /  0mm 0.0 W/m2
02:17 55.2 °F /  12.9 °C 20.8 °F /  -6.2 °C 29.82in /  1009.7hPa Calm     26% 0.00in /  0mm 0.0 W/m2
02:22 55.2 °F /  12.9 °C 20.8 °F /  -6.2 °C 29.82in /  1009.7hPa Calm   1.0mph /  1.6km/h 26% 0.00in /  0mm 0.0 W/m2
02:27 55.0 °F /  12.8 °C 20.8 °F /  -6.2 °C 29.82in /  1009.7hPa Calm     26% 0.00in /  0mm 0.0 W/m2
02:32 55.0 °F /  12.8 °C 20.8 °F /  -6.2 °C 29.81in /  1009.4hPa Calm     26% 0.00in /  0mm 0.0 W/m2
02:37 54.7 °F /  12.6 °C 20.5 °F /  -6.4 °C 29.82in /  1009.7hPa Calm     26% 0.00in /  0mm 0.0 W/m2
02:42 54.3 °F /  12.4 °C 20.1 °F /  -6.6 °C 29.81in /  1009.4hPa Calm     26% 0.00in /  0mm 0.0 W/m2
02:47 54.1 °F /  12.3 °C 20.8 °F /  -6.2 °C 29.81in /  1009.4hPa Calm     27% 0.00in /  0mm 0.0 W/m2
02:52 54.0 °F /  12.2 °C 20.7 °F /  -6.3 °C 29.81in /  1009.4hPa Calm   1.0mph /  1.6km/h 27% 0.00in /  0mm 0.0 W/m2
02:57 54.0 °F /  12.2 °C 20.7 °F /  -6.3 °C 29.81in /  1009.4hPa Calm     27% 0.00in /  0mm 0.0 W/m2
03:02 54.0 °F /  12.2 °C 20.7 °F /  -6.3 °C 29.81in /  1009.4hPa Calm     27% 0.00in /  0mm 0.0 W/m2
03:07 53.8 °F /  12.1 °C 20.7 °F /  -6.3 °C 29.81in /  1009.4hPa Calm     27% 0.00in /  0mm 0.0 W/m2
03:13 53.8 °F /  12.1 °C 20.7 °F /  -6.3 °C 29.81in /  1009.4hPa Calm   1.0mph /  1.6km/h 27% 0.00in /  0mm 0.0 W/m2
03:18 53.4 °F /  11.9 °C 20.3 °F /  -6.5 °C 29.80in /  1009hPa Calm   1.0mph /  1.6km/h 27% 0.00in /  0mm 0.0 W/m2
03:23 53.2 °F /  11.8 °C 20.1 °F /  -6.6 °C 29.80in /  1009hPa Calm     27% 0.00in /  0mm 0.0 W/m2
03:28 53.2 °F /  11.8 °C 20.1 °F /  -6.6 °C 29.80in /  1009hPa Calm   2.0mph /  3.2km/h 27% 0.00in /  0mm 0.0 W/m2
03:33 53.2 °F /  11.8 °C 20.1 °F /  -6.6 °C 29.80in /  1009hPa Calm     27% 0.00in /  0mm 0.0 W/m2
03:38 53.2 °F /  11.8 °C 21.0 °F /  -6.1 °C 29.81in /  1009.4hPa Calm     28% 0.00in /  0mm 0.0 W/m2
03:43 53.1 °F /  11.7 °C 19.9 °F /  -6.7 °C 29.80in /  1009hPa Calm   3.0mph /  4.8km/h 27% 0.00in /  0mm 0.0 W/m2
03:48 53.1 °F /  11.7 °C 19.9 °F /  -6.7 °C 29.80in /  1009hPa Calm     27% 0.00in /  0mm 0.0 W/m2
03:54 52.9 °F /  11.6 °C 20.7 °F /  -6.3 °C 29.80in /  1009hPa Calm     28% 0.00in /  0mm 0.0 W/m2
03:59 52.9 °F /  11.6 °C 20.7 °F /  -6.3 °C 29.80in /  1009hPa Calm   1.0mph /  1.6km/h 28% 0.00in /  0mm 0.0 W/m2
04:09 52.5 °F /  11.4 °C 20.3 °F /  -6.5 °C 29.80in /  1009hPa Calm   1.0mph /  1.6km/h 28% 0.00in /  0mm 0.0 W/m2
04:14 52.5 °F /  11.4 °C 20.3 °F /  -6.5 °C 29.80in /  1009hPa ESE 0.9mph /  1.4km/h 2.0mph /  3.2km/h 28% 0.00in /  0mm 0.0 W/m2
04:19 52.5 °F /  11.4 °C 20.3 °F /  -6.5 °C 29.80in /  1009hPa Calm     28% 0.00in /  0mm 0.0 W/m2
04:24 52.5 °F /  11.4 °C 21.2 °F /  -6 °C 29.80in /  1009hPa Calm     29% 0.00in /  0mm 0.0 W/m2
04:30 52.3 °F /  11.3 °C 21.0 °F /  -6.1 °C 29.80in /  1009hPa Calm     29% 0.00in /  0mm 0.0 W/m2
04:35 52.3 °F /  11.3 °C 20.1 °F /  -6.6 °C 29.80in /  1009hPa Calm     28% 0.00in /  0mm 0.0 W/m2
04:40 52.3 °F /  11.3 °C 21.0 °F /  -6.1 °C 29.80in /  1009hPa Calm     29% 0.00in /  0mm 0.0 W/m2
04:45 52.3 °F /  11.3 °C 20.1 °F /  -6.6 °C 29.80in /  1009hPa Calm     28% 0.00in /  0mm 0.0 W/m2
04:50 52.3 °F /  11.3 °C 20.1 °F /  -6.6 °C 29.80in /  1009hPa Calm     28% 0.00in /  0mm 0.0 W/m2
04:55 52.3 °F /  11.3 °C 20.1 °F /  -6.6 °C 29.80in /  1009hPa Calm     28% 0.00in /  0mm 0.0 W/m2
05:00 52.2 °F /  11.2 °C 20.1 °F /  -6.6 °C 29.80in /  1009hPa Calm   3.0mph /  4.8km/h 28% 0.00in /  0mm 0.0 W/m2
05:05 52.2 °F /  11.2 °C 20.8 °F /  -6.2 °C 29.80in /  1009hPa Calm     29% 0.00in /  0mm 0.0 W/m2
05:14 52.0 °F /  11.1 °C 19.9 °F /  -6.7 °C 29.81in /  1009.4hPa Calm     28% 0.00in /  0mm 0.0 W/m2
05:20 51.8 °F /  11 °C 19.8 °F /  -6.8 °C 29.81in /  1009.4hPa ESE 0.9mph /  1.4km/h 2.0mph /  3.2km/h 28% 0.00in /  0mm 0.0 W/m2
05:25 51.8 °F /  11 °C 18.9 °F /  -7.3 °C 29.81in /  1009.4hPa Calm     27% 0.00in /  0mm 0.0 W/m2
05:26 51.8 °F /  11 °C 19.8 °F /  -6.8 °C 29.81in /  1009.4hPa Calm     28% 0.00in /  0mm 0.0 W/m2
05:30 52.0 °F /  11.1 °C 19.9 °F /  -6.7 °C 29.81in /  1009.4hPa Calm     28% 0.00in /  0mm 0.0 W/m2
05:35 51.8 °F /  11 °C 20.5 °F /  -6.4 °C 29.82in /  1009.7hPa Calm     29% 0.00in /  0mm 0.0 W/m2
05:40 51.6 °F /  10.9 °C 20.3 °F /  -6.5 °C 29.82in /  1009.7hPa Calm     29% 0.00in /  0mm 0.0 W/m2
05:45 51.3 °F /  10.7 °C 20.1 °F /  -6.6 °C 29.82in /  1009.7hPa Calm     29% 0.00in /  0mm 0.0 W/m2
05:51 51.3 °F /  10.7 °C 19.2 °F /  -7.1 °C 29.82in /  1009.7hPa Calm   1.0mph /  1.6km/h 28% 0.00in /  0mm 0.0 W/m2
05:56 51.3 °F /  10.7 °C 20.1 °F /  -6.6 °C 29.82in /  1009.7hPa Calm     29% 0.00in /  0mm 0.0 W/m2
06:01 51.1 °F /  10.6 °C 19.9 °F /  -6.7 °C 29.83in /  1010hPa Calm     29% 0.00in /  0mm 0.0 W/m2
06:07 50.9 °F /  10.5 °C 18.9 °F /  -7.3 °C 29.82in /  1009.7hPa Calm     28% 0.00in /  0mm 0.0 W/m2
06:12 50.7 °F /  10.4 °C 18.9 °F /  -7.3 °C 29.83in /  1010hPa Calm     28% 0.00in /  0mm 0.0 W/m2
06:17 50.7 °F /  10.4 °C 18.9 °F /  -7.3 °C 29.82in /  1009.7hPa Calm     28% 0.00in /  0mm 0.0 W/m2
06:22 50.7 °F /  10.4 °C 19.6 °F /  -6.9 °C 29.83in /  1010hPa Calm     29% 0.00in /  0mm 5.0 W/m2
06:27 50.9 °F /  10.5 °C 18.9 °F /  -7.3 °C 29.83in /  1010hPa Calm   2.0mph /  3.2km/h 28% 0.00in /  0mm 7.0 W/m2
06:32 51.1 °F /  10.6 °C 19.9 °F /  -6.7 °C 29.83in /  1010hPa Calm     29% 0.00in /  0mm 11.0 W/m2
06:37 50.9 °F /  10.5 °C 19.8 °F /  -6.8 °C 29.83in /  1010hPa Calm     29% 0.00in /  0mm 12.0 W/m2
06:42 50.9 °F /  10.5 °C 19.8 °F /  -6.8 °C 29.84in /  1010.4hPa Calm     29% 0.00in /  0mm 14.0 W/m2
06:48 51.1 °F /  10.6 °C 19.9 °F /  -6.7 °C 29.84in /  1010.4hPa Calm     29% 0.00in /  0mm 16.0 W/m2
06:53 51.3 °F /  10.7 °C 19.2 °F /  -7.1 °C 29.84in /  1010.4hPa Calm     28% 0.00in /  0mm 18.0 W/m2
06:59 51.4 °F /  10.8 °C 18.5 °F /  -7.5 °C 29.84in /  1010.4hPa Calm   1.0mph /  1.6km/h 27% 0.00in /  0mm 19.0 W/m2
07:04 51.6 °F /  10.9 °C 19.6 °F /  -6.9 °C 29.84in /  1010.4hPa Calm     28% 0.00in /  0mm 21.0 W/m2
07:09 51.8 °F /  11 °C 19.8 °F /  -6.8 °C 29.84in /  1010.4hPa Calm     28% 0.00in /  0mm 23.0 W/m2
07:14 52.2 °F /  11.2 °C 21.7 °F /  -5.7 °C 29.84in /  1010.4hPa Calm     30% 0.00in /  0mm 23.0 W/m2
07:19 52.3 °F /  11.3 °C 20.1 °F /  -6.6 °C 29.84in /  1010.4hPa Calm   1.0mph /  1.6km/h 28% 0.00in /  0mm 25.0 W/m2
07:24 53.1 °F /  11.7 °C 20.8 °F /  -6.2 °C 29.84in /  1010.4hPa Calm   1.0mph /  1.6km/h 28% 0.00in /  0mm 26.0 W/m2
07:30 53.8 °F /  12.1 °C 20.7 °F /  -6.3 °C 29.84in /  1010.4hPa Calm   3.0mph /  4.8km/h 27% 0.00in /  0mm 26.0 W/m2
07:35 54.7 °F /  12.6 °C 20.5 °F /  -6.4 °C 29.84in /  1010.4hPa Calm   2.0mph /  3.2km/h 26% 0.00in /  0mm 28.0 W/m2
07:40 55.6 °F /  13.1 °C 20.3 °F /  -6.5 °C 29.85in /  1010.7hPa Calm   1.0mph /  1.6km/h 25% 0.00in /  0mm 28.0 W/m2
07:45 56.3 °F /  13.5 °C 20.8 °F /  -6.2 °C 29.85in /  1010.7hPa Calm   2.0mph /  3.2km/h 25% 0.00in /  0mm 32.0 W/m2
07:50 57.4 °F /  14.1 °C 20.8 °F /  -6.2 °C 29.84in /  1010.4hPa Calm   1.0mph /  1.6km/h 24% 0.00in /  0mm 30.0 W/m2
07:55 58.1 °F /  14.5 °C 19.4 °F /  -7 °C 29.85in /  1010.7hPa Calm   1.0mph /  1.6km/h 22% 0.00in /  0mm 30.0 W/m2
08:00 59.2 °F /  15.1 °C 20.3 °F /  -6.5 °C 29.85in /  1010.7hPa Calm     22% 0.00in /  0mm 32.0 W/m2
08:05 60.3 °F /  15.7 °C 20.1 °F /  -6.6 °C 29.85in /  1010.7hPa Calm     21% 0.00in /  0mm 32.0 W/m2
08:11 61.2 °F /  16.2 °C 20.8 °F /  -6.2 °C 29.85in /  1010.7hPa Calm     21% 0.00in /  0mm 33.0 W/m2
08:16 62.1 °F /  16.7 °C 20.5 °F /  -6.4 °C 29.85in /  1010.7hPa Calm     20% 0.00in /  0mm 37.0 W/m2
08:21 62.6 °F /  17 °C 19.8 °F /  -6.8 °C 29.85in /  1010.7hPa Calm   1.0mph /  1.6km/h 19% 0.00in /  0mm 88.0 W/m2
08:27 63.5 °F /  17.5 °C 20.5 °F /  -6.4 °C 29.85in /  1010.7hPa NNE 0.9mph /  1.4km/h 1.0mph /  1.6km/h 19% 0.00in /  0mm 485.0 W/m2
08:32 64.4 °F /  18 °C 19.9 °F /  -6.7 °C 29.85in /  1010.7hPa Calm   1.0mph /  1.6km/h 18% 0.00in /  0mm 504.0 W/m2
08:37 65.8 °F /  18.8 °C 21.2 °F /  -6 °C 29.85in /  1010.7hPa Calm   1.0mph /  1.6km/h 18% 0.00in /  0mm 524.0 W/m2
08:42 67.6 °F /  19.8 °C 19.8 °F /  -6.8 °C 29.85in /  1010.7hPa Calm   1.0mph /  1.6km/h 16% 0.00in /  0mm 545.0 W/m2
08:47 69.1 °F /  20.6 °C 19.4 °F /  -7 °C 29.85in /  1010.7hPa Calm     15% 0.00in /  0mm 564.0 W/m2
08:52 70.0 °F /  21.1 °C 18.5 °F /  -7.5 °C 29.85in /  1010.7hPa Calm   1.0mph /  1.6km/h 14% 0.00in /  0mm 582.0 W/m2
08:57 71.1 °F /  21.7 °C 17.8 °F /  -7.9 °C 29.85in /  1010.7hPa Calm   2.0mph /  3.2km/h 13% 0.00in /  0mm 601.0 W/m2
09:03 72.0 °F /  22.2 °C 18.5 °F /  -7.5 °C 29.85in /  1010.7hPa Calm   3.0mph /  4.8km/h 13% 0.00in /  0mm 619.0 W/m2
09:08 72.1 °F /  22.3 °C 16.7 °F /  -8.5 °C 29.85in /  1010.7hPa Calm     12% 0.00in /  0mm 635.0 W/m2
09:13 72.7 °F /  22.6 °C 17.1 °F /  -8.3 °C 29.85in /  1010.7hPa West 2.9mph /  4.7km/h 3.0mph /  4.8km/h 12% 0.00in /  0mm 654.0 W/m2
09:18 72.9 °F /  22.7 °C 17.2 °F /  -8.2 °C 29.85in /  1010.7hPa Calm   2.0mph /  3.2km/h 12% 0.00in /  0mm 671.0 W/m2
09:23 73.2 °F /  22.9 °C 17.6 °F /  -8 °C 29.85in /  1010.7hPa Calm   2.0mph /  3.2km/h 12% 0.00in /  0mm 689.0 W/m2
09:28 73.6 °F /  23.1 °C 17.8 °F /  -7.9 °C 29.85in /  1010.7hPa Calm   2.0mph /  3.2km/h 12% 0.00in /  0mm 708.0 W/m2
09:33 74.3 °F /  23.5 °C 18.3 °F /  -7.6 °C 29.85in /  1010.7hPa NNW 2.0mph /  3.2km/h 2.0mph /  3.2km/h 12% 0.00in /  0mm 722.0 W/m2
09:38 75.4 °F /  24.1 °C 17.2 °F /  -8.2 °C 29.85in /  1010.7hPa NNW 0.9mph /  1.4km/h 2.0mph /  3.2km/h 11% 0.00in /  0mm 737.0 W/m2
09:44 76.6 °F /  24.8 °C 16.0 °F /  -8.9 °C 29.85in /  1010.7hPa Calm   1.0mph /  1.6km/h 10% 0.00in /  0mm 751.0 W/m2
09:49 77.2 °F /  25.1 °C 14.0 °F /  -10 °C 29.85in /  1010.7hPa West 0.9mph /  1.4km/h 3.0mph /  4.8km/h 9% 0.00in /  0mm 768.0 W/m2
09:54 77.2 °F /  25.1 °C 14.0 °F /  -10 °C 29.84in /  1010.4hPa WNW 2.9mph /  4.7km/h 6.0mph /  9.7km/h 9% 0.00in /  0mm 779.0 W/m2
09:59 77.0 °F /  25 °C 13.8 °F /  -10.1 °C 29.84in /  1010.4hPa Calm   6.0mph /  9.7km/h 9% 0.00in /  0mm 795.0 W/m2
10:04 77.4 °F /  25.2 °C 14.2 °F /  -9.9 °C 29.84in /  1010.4hPa Calm   4.0mph /  6.4km/h 9% 0.00in /  0mm 809.0 W/m2
10:09 77.7 °F /  25.4 °C 14.4 °F /  -9.8 °C 29.84in /  1010.4hPa Calm   1.0mph /  1.6km/h 9% 0.00in /  0mm 824.0 W/m2
10:14 78.3 °F /  25.7 °C 14.7 °F /  -9.6 °C 29.84in /  1010.4hPa North 2.0mph /  3.2km/h 4.0mph /  6.4km/h 9% 0.00in /  0mm 838.0 W/m2
10:19 78.6 °F /  25.9 °C 15.1 °F /  -9.4 °C 29.84in /  1010.4hPa Calm   3.0mph /  4.8km/h 9% 0.00in /  0mm 847.0 W/m2
10:25 79.3 °F /  26.3 °C 18.0 °F /  -7.8 °C 29.84in /  1010.4hPa Calm   7.0mph /  11.3km/h 10% 0.00in /  0mm 861.0 W/m2
10:31 80.1 °F /  26.7 °C 18.5 °F /  -7.5 °C 29.84in /  1010.4hPa WNW 2.0mph /  3.2km/h 5.0mph /  8km/h 10% 0.00in /  0mm 877.0 W/m2
10:36 80.4 °F /  26.9 °C 18.9 °F /  -7.3 °C 29.84in /  1010.4hPa Calm   1.0mph /  1.6km/h 10% 0.00in /  0mm 889.0 W/m2
10:41 80.8 °F /  27.1 °C 16.7 °F /  -8.5 °C 29.84in /  1010.4hPa NNW 4.0mph /  6.4km/h 5.0mph /  8km/h 9% 0.00in /  0mm 900.0 W/m2
10:46 81.1 °F /  27.3 °C 16.9 °F /  -8.4 °C 29.84in /  1010.4hPa Calm   2.0mph /  3.2km/h 9% 0.00in /  0mm 909.0 W/m2
10:51 81.5 °F /  27.5 °C 17.2 °F /  -8.2 °C 29.84in /  1010.4hPa North 0.9mph /  1.4km/h 12.0mph /  19.3km/h 9% 0.00in /  0mm 923.0 W/m2
10:57 82.0 °F /  27.8 °C 20.1 °F /  -6.6 °C 29.83in /  1010hPa NNW 0.9mph /  1.4km/h 2.0mph /  3.2km/h 10% 0.00in /  0mm 928.0 W/m2
11:02 82.8 °F /  28.2 °C 18.1 °F /  -7.7 °C 29.83in /  1010hPa NE 0.9mph /  1.4km/h 9.0mph /  14.5km/h 9% 0.00in /  0mm 942.0 W/m2
11:07 82.8 °F /  28.2 °C 20.7 °F /  -6.3 °C 29.84in /  1010.4hPa NNW 0.9mph /  1.4km/h 6.0mph /  9.7km/h 10% 0.00in /  0mm 949.0 W/m2
11:12 82.9 °F /  28.3 °C 18.3 °F /  -7.6 °C 29.83in /  1010hPa Calm   6.0mph /  9.7km/h 9% 0.00in /  0mm 958.0 W/m2
11:18 82.9 °F /  28.3 °C 18.3 °F /  -7.6 °C 29.83in /  1010hPa Calm   6.0mph /  9.7km/h 9% 0.00in /  0mm 967.0 W/m2
11:23 82.9 °F /  28.3 °C 18.3 °F /  -7.6 °C 29.83in /  1010hPa NNW 2.0mph /  3.2km/h 8.0mph /  12.9km/h 9% 0.00in /  0mm 972.0 W/m2
11:28 83.1 °F /  28.4 °C 20.8 °F /  -6.2 °C 29.83in /  1010hPa NNE 0.9mph /  1.4km/h 6.0mph /  9.7km/h 10% 0.00in /  0mm 981.0 W/m2
11:33 83.7 °F /  28.7 °C 18.9 °F /  -7.3 °C 29.83in /  1010hPa Calm   3.0mph /  4.8km/h 9% 0.00in /  0mm 983.0 W/m2
11:38 83.8 °F /  28.8 °C 19.0 °F /  -7.2 °C 29.83in /  1010hPa NNW 4.9mph /  7.9km/h 6.0mph /  9.7km/h 9% 0.00in /  0mm 991.0 W/m2
11:43 84.4 °F /  29.1 °C 19.4 °F /  -7 °C 29.83in /  1010hPa NNW 2.0mph /  3.2km/h 7.0mph /  11.3km/h 9% 0.00in /  0mm 998.0 W/m2
11:48 84.7 °F /  29.3 °C 19.6 °F /  -6.9 °C 29.83in /  1010hPa NW 6.0mph /  9.7km/h 7.0mph /  11.3km/h 9% 0.00in /  0mm 1002.0 W/m2
11:54 84.9 °F /  29.4 °C 19.8 °F /  -6.8 °C 29.83in /  1010hPa ENE 0.9mph /  1.4km/h 4.0mph /  6.4km/h 9% 0.00in /  0mm 1007.0 W/m2
12:00 85.1 °F /  29.5 °C 19.9 °F /  -6.7 °C 29.82in /  1009.7hPa NNW 6.9mph /  11.1km/h 7.0mph /  11.3km/h 9% 0.00in /  0mm 1014.0 W/m2
12:05 85.3 °F /  29.6 °C 20.1 °F /  -6.6 °C 29.82in /  1009.7hPa West 0.9mph /  1.4km/h 4.0mph /  6.4km/h 9% 0.00in /  0mm 1014.0 W/m2
12:10 85.3 °F /  29.6 °C 20.1 °F /  -6.6 °C 29.82in /  1009.7hPa NW 2.9mph /  4.7km/h 8.0mph /  12.9km/h 9% 0.00in /  0mm 1020.0 W/m2
12:15 85.5 °F /  29.7 °C 17.4 °F /  -8.1 °C 29.82in /  1009.7hPa West 2.0mph /  3.2km/h 8.0mph /  12.9km/h 8% 0.00in /  0mm 1023.0 W/m2
12:20 85.8 °F /  29.9 °C 17.8 °F /  -7.9 °C 29.81in /  1009.4hPa ENE 4.0mph /  6.4km/h 7.0mph /  11.3km/h 8% 0.00in /  0mm 1025.0 W/m2
12:25 86.2 °F /  30.1 °C 20.7 °F /  -6.3 °C 29.81in /  1009.4hPa NW 0.9mph /  1.4km/h 5.0mph /  8km/h 9% 0.00in /  0mm 1023.0 W/m2
12:30 86.5 °F /  30.3 °C 18.3 °F /  -7.6 °C 29.81in /  1009.4hPa NNW 6.9mph /  11.1km/h 10.0mph /  16.1km/h 8% 0.00in /  0mm 1027.0 W/m2
12:35 86.7 °F /  30.4 °C 21.2 °F /  -6 °C 29.81in /  1009.4hPa NW 2.9mph /  4.7km/h 4.0mph /  6.4km/h 9% 0.00in /  0mm 1023.0 W/m2
12:41 87.1 °F /  30.6 °C 18.7 °F /  -7.4 °C 29.80in /  1009hPa NW 2.0mph /  3.2km/h 9.0mph /  14.5km/h 8% 0.00in /  0mm 1018.0 W/m2
12:46 87.4 °F /  30.8 °C 18.9 °F /  -7.3 °C 29.80in /  1009hPa WSW 0.9mph /  1.4km/h 5.0mph /  8km/h 8% 0.00in /  0mm 1023.0 W/m2
12:52 87.1 °F /  30.6 °C 18.7 °F /  -7.4 °C 29.80in /  1009hPa WNW 2.9mph /  4.7km/h 9.0mph /  14.5km/h 8% 0.00in /  0mm 1027.0 W/m2
12:57 87.4 °F /  30.8 °C 18.9 °F /  -7.3 °C 29.80in /  1009hPa NNW 2.0mph /  3.2km/h 15.0mph /  24.1km/h 8% 0.00in /  0mm 1025.0 W/m2
13:02 88.2 °F /  31.2 °C 16.3 °F /  -8.7 °C 29.80in /  1009hPa WNW 2.0mph /  3.2km/h 8.0mph /  12.9km/h 7% 0.00in /  0mm 1021.0 W/m2
13:07 88.9 °F /  31.6 °C 16.9 °F /  -8.4 °C 29.80in /  1009hPa NW 4.9mph /  7.9km/h 14.0mph /  22.5km/h 7% 0.00in /  0mm 1018.0 W/m2
13:12 89.2 °F /  31.8 °C 17.1 °F /  -8.3 °C 29.80in /  1009hPa NW 2.0mph /  3.2km/h 10.0mph /  16.1km/h 7% 0.00in /  0mm 1013.0 W/m2
13:17 90.0 °F /  32.2 °C 17.6 °F /  -8 °C 29.80in /  1009hPa Calm   5.0mph /  8km/h 7% 0.00in /  0mm 1005.0 W/m2
13:23 89.8 °F /  32.1 °C 17.6 °F /  -8 °C 29.79in /  1008.7hPa Calm   8.0mph /  12.9km/h 7% 0.00in /  0mm 1004.0 W/m2
13:34 88.7 °F /  31.5 °C 13.3 °F /  -10.4 °C 29.80in /  1009hPa NNW 0.9mph /  1.4km/h 4.0mph /  6.4km/h 6% 0.00in /  0mm 990.0 W/m2
13:39 89.1 °F /  31.7 °C 13.5 °F /  -10.3 °C 29.79in /  1008.7hPa SW 4.9mph /  7.9km/h 8.0mph /  12.9km/h 6% 0.00in /  0mm 986.0 W/m2
13:44 88.5 °F /  31.4 °C 16.7 °F /  -8.5 °C 29.79in /  1008.7hPa WSW 2.9mph /  4.7km/h 10.0mph /  16.1km/h 7% 0.00in /  0mm 976.0 W/m2
13:49 88.0 °F /  31.1 °C 16.2 °F /  -8.8 °C 29.79in /  1008.7hPa West 8.1mph /  13km/h 14.0mph /  22.5km/h 7% 0.00in /  0mm 960.0 W/m2
13:54 88.0 °F /  31.1 °C 12.7 °F /  -10.7 °C 29.79in /  1008.7hPa SSW 6.0mph /  9.7km/h 11.0mph /  17.7km/h 6% 0.00in /  0mm 960.0 W/m2
13:59 88.2 °F /  31.2 °C 12.9 °F /  -10.6 °C 29.79in /  1008.7hPa WSW 4.9mph /  7.9km/h 7.0mph /  11.3km/h 6% 0.00in /  0mm 949.0 W/m2
14:04 88.2 °F /  31.2 °C 12.9 °F /  -10.6 °C 29.79in /  1008.7hPa West 8.9mph /  14.3km/h 12.0mph /  19.3km/h 6% 0.00in /  0mm 939.0 W/m2
14:09 87.6 °F /  30.9 °C 16.0 °F /  -8.9 °C 29.79in /  1008.7hPa North 2.0mph /  3.2km/h 14.0mph /  22.5km/h 7% 0.00in /  0mm 932.0 W/m2
14:14 88.0 °F /  31.1 °C 16.2 °F /  -8.8 °C 29.79in /  1008.7hPa WSW 2.0mph /  3.2km/h 5.0mph /  8km/h 7% 0.00in /  0mm 919.0 W/m2
14:20 87.6 °F /  30.9 °C 12.4 °F /  -10.9 °C 29.79in /  1008.7hPa WSW 6.9mph /  11.1km/h 13.0mph /  20.9km/h 6% 0.00in /  0mm 907.0 W/m2
14:26 87.3 °F /  30.7 °C 15.6 °F /  -9.1 °C 29.79in /  1008.7hPa West 6.0mph /  9.7km/h 10.0mph /  16.1km/h 7% 0.00in /  0mm 898.0 W/m2
14:31 88.2 °F /  31.2 °C 12.9 °F /  -10.6 °C 29.79in /  1008.7hPa SW 6.0mph /  9.7km/h 10.0mph /  16.1km/h 6% 0.00in /  0mm 889.0 W/m2
14:36 88.3 °F /  31.3 °C 12.9 °F /  -10.6 °C 29.79in /  1008.7hPa WSW 8.1mph /  13km/h 14.0mph /  22.5km/h 6% 0.00in /  0mm 879.0 W/m2
14:41 87.4 °F /  30.8 °C 12.4 °F /  -10.9 °C 29.79in /  1008.7hPa WSW 6.9mph /  11.1km/h 12.0mph /  19.3km/h 6% 0.00in /  0mm 868.0 W/m2
14:46 87.3 °F /  30.7 °C 15.6 °F /  -9.1 °C 29.78in /  1008.4hPa West 2.0mph /  3.2km/h 7.0mph /  11.3km/h 7% 0.00in /  0mm 854.0 W/m2
14:51 87.4 °F /  30.8 °C 12.4 °F /  -10.9 °C 29.78in /  1008.4hPa WNW 2.9mph /  4.7km/h 11.0mph /  17.7km/h 6% 0.00in /  0mm 844.0 W/m2
14:56 88.0 °F /  31.1 °C 12.7 °F /  -10.7 °C 29.78in /  1008.4hPa SSW 0.9mph /  1.4km/h 7.0mph /  11.3km/h 6% 0.00in /  0mm 833.0 W/m2
15:01 88.0 °F /  31.1 °C 12.7 °F /  -10.7 °C 29.78in /  1008.4hPa Calm   12.0mph /  19.3km/h 6% 0.00in /  0mm 823.0 W/m2
15:06 88.2 °F /  31.2 °C 12.9 °F /  -10.6 °C 29.78in /  1008.4hPa WNW 2.0mph /  3.2km/h 11.0mph /  17.7km/h 6% 0.00in /  0mm 803.0 W/m2
15:12 88.5 °F /  31.4 °C 13.1 °F /  -10.5 °C 29.78in /  1008.4hPa WSW 2.9mph /  4.7km/h 6.0mph /  9.7km/h 6% 0.00in /  0mm 789.0 W/m2
15:17 89.1 °F /  31.7 °C 13.5 °F /  -10.3 °C 29.78in /  1008.4hPa NNW 4.9mph /  7.9km/h 13.0mph /  20.9km/h 6% 0.00in /  0mm 777.0 W/m2
15:22 88.9 °F /  31.6 °C 13.3 °F /  -10.4 °C 29.78in /  1008.4hPa WSW 4.0mph /  6.4km/h 8.0mph /  12.9km/h 6% 0.00in /  0mm 759.0 W/m2
15:27 88.9 °F /  31.6 °C 13.3 °F /  -10.4 °C 29.78in /  1008.4hPa NNW 6.0mph /  9.7km/h 7.0mph /  11.3km/h 6% 0.00in /  0mm 740.0 W/m2
15:32 89.2 °F /  31.8 °C 17.1 °F /  -8.3 °C 29.78in /  1008.4hPa WNW 2.9mph /  4.7km/h 5.0mph /  8km/h 7% 0.00in /  0mm 722.0 W/m2
15:37 90.0 °F /  32.2 °C 17.6 °F /  -8 °C 29.78in /  1008.4hPa West 4.9mph /  7.9km/h 7.0mph /  11.3km/h 7% 0.00in /  0mm 708.0 W/m2
15:42 90.0 °F /  32.2 °C 14.2 °F /  -9.9 °C 29.78in /  1008.4hPa West 11.0mph /  17.7km/h 14.0mph /  22.5km/h 6% 0.00in /  0mm 694.0 W/m2
15:48 89.4 °F /  31.9 °C 13.8 °F /  -10.1 °C 29.78in /  1008.4hPa WNW 0.9mph /  1.4km/h 12.0mph /  19.3km/h 6% 0.00in /  0mm 673.0 W/m2
15:53 89.2 °F /  31.8 °C 13.6 °F /  -10.2 °C 29.78in /  1008.4hPa NNW 4.0mph /  6.4km/h 5.0mph /  8km/h 6% 0.00in /  0mm 656.0 W/m2
15:59 89.4 °F /  31.9 °C 17.2 °F /  -8.2 °C 29.78in /  1008.4hPa NNW 2.9mph /  4.7km/h 10.0mph /  16.1km/h 7% 0.00in /  0mm 642.0 W/m2
16:04 89.8 °F /  32.1 °C 14.0 °F /  -10 °C 29.78in /  1008.4hPa WNW 2.9mph /  4.7km/h 11.0mph /  17.7km/h 6% 0.00in /  0mm 619.0 W/m2
16:10 88.5 °F /  31.4 °C 16.7 °F /  -8.5 °C 29.78in /  1008.4hPa SW 8.1mph /  13km/h 11.0mph /  17.7km/h 7% 0.00in /  0mm 598.0 W/m2
16:15 87.8 °F /  31 °C 12.6 °F /  -10.8 °C 29.78in /  1008.4hPa West 6.9mph /  11.1km/h 9.0mph /  14.5km/h 6% 0.00in /  0mm 582.0 W/m2
16:20 87.6 °F /  30.9 °C 16.0 °F /  -8.9 °C 29.78in /  1008.4hPa NW 2.0mph /  3.2km/h 13.0mph /  20.9km/h 7% 0.00in /  0mm 561.0 W/m2
16:25 88.0 °F /  31.1 °C 16.2 °F /  -8.8 °C 29.78in /  1008.4hPa NNW 4.9mph /  7.9km/h 5.0mph /  8km/h 7% 0.00in /  0mm 541.0 W/m2
16:30 88.3 °F /  31.3 °C 16.5 °F /  -8.6 °C 29.78in /  1008.4hPa SW 2.9mph /  4.7km/h 9.0mph /  14.5km/h 7% 0.00in /  0mm 522.0 W/m2
16:35 88.9 °F /  31.6 °C 16.9 °F /  -8.4 °C 29.78in /  1008.4hPa NW 2.0mph /  3.2km/h 8.0mph /  12.9km/h 7% 0.00in /  0mm 506.0 W/m2
16:41 88.9 °F /  31.6 °C 16.9 °F /  -8.4 °C 29.78in /  1008.4hPa West 2.0mph /  3.2km/h 11.0mph /  17.7km/h 7% 0.00in /  0mm 485.0 W/m2
16:46 88.5 °F /  31.4 °C 16.7 °F /  -8.5 °C 29.78in /  1008.4hPa West 6.9mph /  11.1km/h 10.0mph /  16.1km/h 7% 0.00in /  0mm 466.0 W/m2
16:51 88.0 °F /  31.1 °C 16.2 °F /  -8.8 °C 29.78in /  1008.4hPa SW 6.0mph /  9.7km/h 11.0mph /  17.7km/h 7% 0.00in /  0mm 446.0 W/m2
16:57 87.4 °F /  30.8 °C 15.8 °F /  -9 °C 29.78in /  1008.4hPa Calm   4.0mph /  6.4km/h 7% 0.00in /  0mm 424.0 W/m2
17:02 87.8 °F /  31 °C 16.2 °F /  -8.8 °C 29.78in /  1008.4hPa North 0.9mph /  1.4km/h 3.0mph /  4.8km/h 7% 0.00in /  0mm 403.0 W/m2
17:07 88.3 °F /  31.3 °C 12.9 °F /  -10.6 °C 29.78in /  1008.4hPa Calm   4.0mph /  6.4km/h 6% 0.00in /  0mm 385.0 W/m2
17:13 88.5 °F /  31.4 °C 16.7 °F /  -8.5 °C 29.78in /  1008.4hPa WSW 2.9mph /  4.7km/h 8.0mph /  12.9km/h 7% 0.00in /  0mm 364.0 W/m2
17:18 87.4 °F /  30.8 °C 15.8 °F /  -9 °C 29.79in /  1008.7hPa West 4.9mph /  7.9km/h 11.0mph /  17.7km/h 7% 0.00in /  0mm 341.0 W/m2
17:23 86.7 °F /  30.4 °C 15.3 °F /  -9.3 °C 29.79in /  1008.7hPa SSW 4.0mph /  6.4km/h 10.0mph /  16.1km/h 7% 0.00in /  0mm 322.0 W/m2
17:28 86.5 °F /  30.3 °C 15.3 °F /  -9.3 °C 29.79in /  1008.7hPa West 6.0mph /  9.7km/h 13.0mph /  20.9km/h 7% 0.00in /  0mm 301.0 W/m2
17:33 85.6 °F /  29.8 °C 14.5 °F /  -9.7 °C 29.79in /  1008.7hPa West 6.0mph /  9.7km/h 8.0mph /  12.9km/h 7% 0.00in /  0mm 279.0 W/m2
17:38 85.3 °F /  29.6 °C 14.2 °F /  -9.9 °C 29.79in /  1008.7hPa West 2.0mph /  3.2km/h 5.0mph /  8km/h 7% 0.00in /  0mm 260.0 W/m2
17:44 85.5 °F /  29.7 °C 14.4 °F /  -9.8 °C 29.79in /  1008.7hPa WSW 2.0mph /  3.2km/h 5.0mph /  8km/h 7% 0.00in /  0mm 241.0 W/m2
17:49 84.9 °F /  29.4 °C 14.0 °F /  -10 °C 29.80in /  1009hPa SW 0.9mph /  1.4km/h 7.0mph /  11.3km/h 7% 0.00in /  0mm 221.0 W/m2
17:54 84.9 °F /  29.4 °C 14.0 °F /  -10 °C 29.80in /  1009hPa Calm   5.0mph /  8km/h 7% 0.00in /  0mm 202.0 W/m2
17:59 85.3 °F /  29.6 °C 14.2 °F /  -9.9 °C 29.80in /  1009hPa NW 2.9mph /  4.7km/h 4.0mph /  6.4km/h 7% 0.00in /  0mm 181.0 W/m2
18:04 85.3 °F /  29.6 °C 14.2 °F /  -9.9 °C 29.80in /  1009hPa West 4.9mph /  7.9km/h 7.0mph /  11.3km/h 7% 0.00in /  0mm 160.0 W/m2
18:09 84.7 °F /  29.3 °C 13.8 °F /  -10.1 °C 29.80in /  1009hPa West 6.0mph /  9.7km/h 10.0mph /  16.1km/h 7% 0.00in /  0mm 135.0 W/m2
18:14 84.6 °F /  29.2 °C 13.6 °F /  -10.2 °C 29.80in /  1009hPa Calm   2.0mph /  3.2km/h 7% 0.00in /  0mm 111.0 W/m2
18:20 84.7 °F /  29.3 °C 13.8 °F /  -10.1 °C 29.81in /  1009.4hPa Calm   3.0mph /  4.8km/h 7% 0.00in /  0mm 88.0 W/m2
18:25 84.6 °F /  29.2 °C 13.6 °F /  -10.2 °C 29.81in /  1009.4hPa SW 2.9mph /  4.7km/h 6.0mph /  9.7km/h 7% 0.00in /  0mm 65.0 W/m2
18:31 83.8 °F /  28.8 °C 13.3 °F /  -10.4 °C 29.81in /  1009.4hPa WSW 0.9mph /  1.4km/h 7.0mph /  11.3km/h 7% 0.00in /  0mm 47.0 W/m2
18:36 83.3 °F /  28.5 °C 12.7 °F /  -10.7 °C 29.81in /  1009.4hPa WSW 0.9mph /  1.4km/h 2.0mph /  3.2km/h 7% 0.00in /  0mm 33.0 W/m2
18:41 82.8 °F /  28.2 °C 12.4 °F /  -10.9 °C 29.82in /  1009.7hPa West 2.9mph /  4.7km/h 7.0mph /  11.3km/h 7% 0.00in /  0mm 18.0 W/m2
18:51 81.0 °F /  27.2 °C 14.2 °F /  -9.9 °C 29.82in /  1009.7hPa WSW 2.0mph /  3.2km/h 6.0mph /  9.7km/h 8% 0.00in /  0mm 7.0 W/m2
18:56 80.4 °F /  26.9 °C 13.6 °F /  -10.2 °C 29.82in /  1009.7hPa Calm   3.0mph /  4.8km/h 8% 0.00in /  0mm 5.0 W/m2
19:01 79.7 °F /  26.5 °C 13.1 °F /  -10.5 °C 29.83in /  1010hPa WSW 0.9mph /  1.4km/h 3.0mph /  4.8km/h 8% 0.00in /  0mm 0.0 W/m2
19:07 79.2 °F /  26.2 °C 12.7 °F /  -10.7 °C 29.83in /  1010hPa WSW 2.0mph /  3.2km/h 2.0mph /  3.2km/h 8% 0.00in /  0mm 0.0 W/m2
19:12 78.4 °F /  25.8 °C 12.2 °F /  -11 °C 29.83in /  1010hPa Calm   5.0mph /  8km/h 8% 0.00in /  0mm 0.0 W/m2
19:17 78.1 °F /  25.6 °C 14.7 °F /  -9.6 °C 29.83in /  1010hPa SSE 0.9mph /  1.4km/h 4.0mph /  6.4km/h 9% 0.00in /  0mm 0.0 W/m2
19:23 77.7 °F /  25.4 °C 14.4 °F /  -9.8 °C 29.84in /  1010.4hPa WSW 2.0mph /  3.2km/h 2.0mph /  3.2km/h 9% 0.00in /  0mm 0.0 W/m2
19:28 77.4 °F /  25.2 °C 14.2 °F /  -9.9 °C 29.84in /  1010.4hPa Calm   4.0mph /  6.4km/h 9% 0.00in /  0mm 0.0 W/m2
19:33 77.2 °F /  25.1 °C 14.0 °F /  -10 °C 29.84in /  1010.4hPa Calm     9% 0.00in /  0mm 0.0 W/m2
19:38 76.8 °F /  24.9 °C 13.6 °F /  -10.2 °C 29.84in /  1010.4hPa Calm   1.0mph /  1.6km/h 9% 0.00in /  0mm 0.0 W/m2
19:43 76.5 °F /  24.7 °C 13.5 °F /  -10.3 °C 29.85in /  1010.7hPa Calm   1.0mph /  1.6km/h 9% 0.00in /  0mm 0.0 W/m2
19:48 76.1 °F /  24.5 °C 15.6 °F /  -9.1 °C 29.85in /  1010.7hPa Calm   1.0mph /  1.6km/h 10% 0.00in /  0mm 0.0 W/m2
19:53 75.7 °F /  24.3 °C 15.3 °F /  -9.3 °C 29.85in /  1010.7hPa Calm     10% 0.00in /  0mm 0.0 W/m2
19:58 75.4 °F /  24.1 °C 15.1 °F /  -9.4 °C 29.86in /  1011.1hPa Calm   2.0mph /  3.2km/h 10% 0.00in /  0mm 0.0 W/m2
20:04 75.0 °F /  23.9 °C 14.7 °F /  -9.6 °C 29.86in /  1011.1hPa Calm   2.0mph /  3.2km/h 10% 0.00in /  0mm 0.0 W/m2
20:09 74.8 °F /  23.8 °C 14.5 °F /  -9.7 °C 29.86in /  1011.1hPa Calm     10% 0.00in /  0mm 0.0 W/m2
20:14 74.7 °F /  23.7 °C 14.5 °F /  -9.7 °C 29.86in /  1011.1hPa Calm   2.0mph /  3.2km/h 10% 0.00in /  0mm 0.0 W/m2
20:19 74.3 °F /  23.5 °C 14.2 °F /  -9.9 °C 29.87in /  1011.4hPa Calm   1.0mph /  1.6km/h 10% 0.00in /  0mm 0.0 W/m2
20:24 73.9 °F /  23.3 °C 14.0 °F /  -10 °C 29.87in /  1011.4hPa Calm   2.0mph /  3.2km/h 10% 0.00in /  0mm 0.0 W/m2
20:29 73.8 °F /  23.2 °C 13.8 °F /  -10.1 °C 29.87in /  1011.4hPa Calm     10% 0.00in /  0mm 0.0 W/m2
20:34 73.6 °F /  23.1 °C 15.8 °F /  -9 °C 29.87in /  1011.4hPa Calm     11% 0.00in /  0mm 0.0 W/m2
20:39 73.2 °F /  22.9 °C 15.6 °F /  -9.1 °C 29.87in /  1011.4hPa Calm     11% 0.00in /  0mm 0.0 W/m2
20:44 72.9 °F /  22.7 °C 15.3 °F /  -9.3 °C 29.88in /  1011.7hPa Calm     11% 0.00in /  0mm 0.0 W/m2
20:50 72.3 °F /  22.4 °C 14.9 °F /  -9.5 °C 29.88in /  1011.7hPa Calm     11% 0.00in /  0mm 0.0 W/m2
20:55 72.0 °F /  22.2 °C 14.5 °F /  -9.7 °C 29.88in /  1011.7hPa Calm     11% 0.00in /  0mm 0.0 W/m2
21:00 71.4 °F /  21.9 °C 14.2 °F /  -9.9 °C 29.88in /  1011.7hPa Calm     11% 0.00in /  0mm 0.0 W/m2
21:05 71.1 °F /  21.7 °C 13.8 °F /  -10.1 °C 29.88in /  1011.7hPa Calm     11% 0.00in /  0mm 0.0 W/m2
21:10 70.5 °F /  21.4 °C 13.5 °F /  -10.3 °C 29.88in /  1011.7hPa Calm     11% 0.00in /  0mm 0.0 W/m2
21:15 70.2 °F /  21.2 °C 15.1 °F /  -9.4 °C 29.89in /  1012.1hPa Calm     12% 0.00in /  0mm 0.0 W/m2
21:20 69.6 °F /  20.9 °C 14.7 °F /  -9.6 °C 29.89in /  1012.1hPa Calm     12% 0.00in /  0mm 0.0 W/m2
21:25 69.3 °F /  20.7 °C 14.5 °F /  -9.7 °C 29.89in /  1012.1hPa Calm     12% 0.00in /  0mm 0.0 W/m2
21:31 69.1 °F /  20.6 °C 14.4 °F /  -9.8 °C 29.89in /  1012.1hPa Calm     12% 0.00in /  0mm 0.0 W/m2
21:37 68.4 °F /  20.2 °C 17.2 °F /  -8.2 °C 29.90in /  1012.4hPa Calm     14% 0.00in /  0mm 0.0 W/m2
21:47 67.6 °F /  19.8 °C 15.1 °F /  -9.4 °C 29.90in /  1012.4hPa Calm     13% 0.00in /  0mm 0.0 W/m2
21:52 67.5 °F /  19.7 °C 13.1 °F /  -10.5 °C 29.90in /  1012.4hPa Calm     12% 0.00in /  0mm 0.0 W/m2
21:57 66.9 °F /  19.4 °C 12.6 °F /  -10.8 °C 29.91in /  1012.8hPa Calm     12% 0.00in /  0mm 0.0 W/m2
22:02 66.7 °F /  19.3 °C 14.4 °F /  -9.8 °C 29.91in /  1012.8hPa Calm     13% 0.00in /  0mm 0.0 W/m2
22:07 66.4 °F /  19.1 °C 14.0 °F /  -10 °C 29.91in /  1012.8hPa Calm   1.0mph /  1.6km/h 13% 0.00in /  0mm 0.0 W/m2
22:12 66.0 °F /  18.9 °C 15.4 °F /  -9.2 °C 29.91in /  1012.8hPa Calm     14% 0.00in /  0mm 0.0 W/m2
22:17 65.7 °F /  18.7 °C 15.1 °F /  -9.4 °C 29.91in /  1012.8hPa Calm     14% 0.00in /  0mm 0.0 W/m2
22:23 65.1 °F /  18.4 °C 14.7 °F /  -9.6 °C 29.91in /  1012.8hPa Calm     14% 0.00in /  0mm 0.0 W/m2
22:28 64.9 °F /  18.3 °C 14.5 °F /  -9.7 °C 29.91in /  1012.8hPa Calm   1.0mph /  1.6km/h 14% 0.00in /  0mm 0.0 W/m2
22:33 64.6 °F /  18.1 °C 15.8 °F /  -9 °C 29.91in /  1012.8hPa Calm     15% 0.00in /  0mm 0.0 W/m2
22:38 64.4 °F /  18 °C 15.8 °F /  -9 °C 29.92in /  1013.1hPa Calm     15% 0.00in /  0mm 0.0 W/m2
22:43 64.2 °F /  17.9 °C 15.6 °F /  -9.1 °C 29.91in /  1012.8hPa Calm     15% 0.00in /  0mm 0.0 W/m2
22:58 63.5 °F /  17.5 °C 16.5 °F /  -8.6 °C 29.91in /  1012.8hPa Calm     16% 0.00in /  0mm 0.0 W/m2
23:04 63.1 °F /  17.3 °C 16.2 °F /  -8.8 °C 29.92in /  1013.1hPa Calm     16% 0.00in /  0mm 0.0 W/m2
23:09 63.0 °F /  17.2 °C 16.0 °F /  -8.9 °C 29.91in /  1012.8hPa Calm     16% 0.00in /  0mm 0.0 W/m2
23:14 62.8 °F /  17.1 °C 16.0 °F /  -8.9 °C 29.91in /  1012.8hPa Calm     16% 0.00in /  0mm 0.0 W/m2
23:20 62.6 °F /  17 °C 15.8 °F /  -9 °C 29.91in /  1012.8hPa Calm   2.0mph /  3.2km/h 16% 0.00in /  0mm 0.0 W/m2
23:25 62.6 °F /  17 °C 15.8 °F /  -9 °C 29.91in /  1012.8hPa Calm   1.0mph /  1.6km/h 16% 0.00in /  0mm 0.0 W/m2
23:30 62.4 °F /  16.9 °C 15.6 °F /  -9.1 °C 29.91in /  1012.8hPa Calm     16% 0.00in /  0mm 0.0 W/m2
23:35 62.4 °F /  16.9 °C 15.6 °F /  -9.1 °C 29.91in /  1012.8hPa Calm   2.0mph /  3.2km/h 16% 0.00in /  0mm 0.0 W/m2
23:40 62.2 °F /  16.8 °C 15.4 °F /  -9.2 °C 29.92in /  1013.1hPa Calm     16% 0.00in /  0mm 0.0 W/m2
23:46 62.1 °F /  16.7 °C 15.3 °F /  -9.3 °C 29.91in /  1012.8hPa Calm     16% 0.00in /  0mm 0.0 W/m2
23:51 61.9 °F /  16.6 °C 15.3 °F /  -9.3 °C 29.91in /  1012.8hPa Calm     16% 0.00in /  0mm 0.0 W/m2
23:56 61.7 °F /  16.5 °C 15.1 °F /  -9.4 °C 29.91in /  1012.8hPa Calm   1.0mph /  1.6km/h 16% 0.00in /  0mm 0.0 W/m2
Olympia, Windhoek, Namibia
Compliments of Weather Underground - 3.25 mb